Volver al catálogo

FENGYUN 1C DEB

ActivoSSO
NORAD 29921·DEBRIS·🇨🇳 China

Lanzado May 10, 1999 desde Taiyuan Satellite Launch Center

Loading…

Próximos Pases (próximas 24 horas)

TLE

ActualizadoSource: Space-Track

Época: Sep 14, 2026, 11:43 UTC

1 29921U 99025HT  26257.48850512  .00000318  00000-0  21437-3 0  9995
2 29921  98.7898 260.7994 0045867  15.2231 136.9494 14.06941524  7532

Sigue FENGYUN 1C DEB en tiempo real con AllMySat

Download on the App Store